| time (UTC) | temp C | wind direction | speed KPH | gust KPH | rain 1hr cm | rain 24hr cm | rain mn cm | humidity % | barometer mb |
| 20260503201057 | 17 | 185 | 0.0 | 0.0 | 0.00 | 0.00 | 0.00 | 44 | 1015.3 |
| 20260503200553 | 17 | 190 | 3.2 | 3.2 | 0.00 | 0.00 | 0.00 | 42 | 1015.3 |
| 20260503200050 | 17 | 320 | 3.2 | 4.8 | 0.00 | 0.00 | 0.00 | 41 | 1015.3 |
| 20260503195547 | 17 | 193 | 1.6 | 1.6 | 0.00 | 0.00 | 0.00 | 42 | 1015.2 |
| 20260503195044 | 17 | 57 | 3.2 | 3.2 | 0.00 | 0.00 | 0.00 | 41 | 1015.3 |
| 20260503194541 | 17 | 331 | 3.2 | 3.2 | 0.00 | 0.00 | 0.00 | 43 | 1015.6 |
| 20260503194041 | 16 | 61 | 0.0 | 0.0 | 0.00 | 0.00 | 0.00 | 42 | 1015.6 |
| 20260503193538 | 17 | 358 | 4.8 | 4.8 | 0.00 | 0.00 | 0.00 | 41 | 1015.3 |
| 20260503193033 | 17 | 359 | 0.0 | 0.0 | 0.00 | 0.00 | 0.00 | 41 | 1015.5 |
| 20260503192529 | 17 | 342 | 6.4 | 11.3 | 0.00 | 0.00 | 0.00 | 43 | 1015.6 |
| 20260503192025 | 16 | 22 | 3.2 | 3.2 | 0.00 | 0.00 | 0.00 | 44 | 1015.7 |
| 20260503191522 | 16 | 115 | 0.0 | 1.6 | 0.00 | 0.00 | 0.00 | 45 | 1015.8 |
| 20260503191019 | 16 | 309 | 6.4 | 9.7 | 0.00 | 0.00 | 0.00 | 43 | 1015.9 |
| 20260503190516 | 16 | 11 | 6.4 | 6.4 | 0.00 | 0.00 | 0.00 | 44 | 1015.9 |
| 20260503190013 | 17 | 346 | 1.6 | 1.6 | 0.00 | 0.00 | 0.00 | 43 | 1016.0 |
| 20260503185509 | 17 | 31 | 3.2 | 3.2 | 0.00 | 0.00 | 0.00 | 41 | 1016.1 |
| 20260503185009 | 17 | 194 | 1.6 | 3.2 | 0.00 | 0.00 | 0.00 | 45 | 1016.2 |
| 20260503184506 | 17 | 302 | 1.6 | 1.6 | 0.00 | 0.00 | 0.00 | 45 | 1016.3 |
| 20260503184002 | 17 | 336 | 0.0 | 0.0 | 0.00 | 0.00 | 0.00 | 45 | 1016.3 |
| 20260503183459 | 16 | 182 | 1.6 | 3.2 | 0.00 | 0.00 | 0.00 | 47 | 1016.2 |
| 20260503182955 | 16 | 281 | 3.2 | 4.8 | 0.00 | 0.00 | 0.00 | 44 | 1016.2 |
| 20260503182455 | 16 | 54 | 3.2 | 3.2 | 0.00 | 0.00 | 0.00 | 46 | 1016.2 |
| 20260503181952 | 16 | 328 | 4.8 | 9.7 | 0.00 | 0.00 | 0.00 | 43 | 1016.3 |
| 20260503181449 | 16 | 289 | 4.8 | 6.4 | 0.00 | 0.00 | 0.00 | 44 | 1016.1 |
| 20260503180945 | 16 | 333 | 8.0 | 11.3 | 0.00 | 0.00 | 0.00 | 44 | 1016.2 |
| 20260503180443 | 16 | 38 | 3.2 | 3.2 | 0.00 | 0.00 | 0.00 | 46 | 1016.1 |
| 20260503175940 | 16 | 347 | 6.4 | 6.4 | 0.00 | 0.00 | 0.00 | 42 | 1016.2 |
| 20260503175438 | 16 | 338 | 3.2 | 3.2 | 0.00 | 0.00 | 0.00 | 45 | 1016.4 |
| 20260503174938 | 15 | 16 | 1.6 | 1.6 | 0.00 | 0.00 | 0.00 | 46 | 1016.4 |
| 20260503174437 | 15 | 320 | 8.0 | 9.7 | 0.00 | 0.00 | 0.00 | 46 | 1016.4 |
| 20260503173932 | 15 | 2 | 1.6 | 3.2 | 0.00 | 0.00 | 0.00 | 44 | 1016.4 |
| 20260503173428 | 15 | 34 | 3.2 | 4.8 | 0.00 | 0.00 | 0.00 | 43 | 1016.3 |
| 20260503172925 | 15 | 23 | 3.2 | 3.2 | 0.00 | 0.00 | 0.00 | 44 | 1016.5 |
| 20260503172422 | 15 | 333 | 3.2 | 3.2 | 0.00 | 0.00 | 0.00 | 45 | 1016.3 |
| 20260503171918 | 15 | 23 | 6.4 | 9.7 | 0.00 | 0.00 | 0.00 | 46 | 1016.4 |
| 20260503171415 | 15 | 338 | 3.2 | 4.8 | 0.00 | 0.00 | 0.00 | 47 | 1016.4 |
| 20260503170913 | 15 | 336 | 6.4 | 11.3 | 0.00 | 0.00 | 0.00 | 46 | 1016.7 |
| 20260503170409 | 15 | 337 | 6.4 | 6.4 | 0.00 | 0.00 | 0.00 | 46 | 1016.6 |
| 20260503150801 | 13 | 330 | 8.0 | 9.7 | 0.00 | 0.00 | 0.00 | 47 | 1017.0 |
| 20260503150257 | 13 | 318 | 9.7 | 11.3 | 0.00 | 0.00 | 0.00 | 48 | 1016.9 |
| 20260503140222 | 12 | 335 | 6.4 | 6.4 | 0.00 | 0.00 | 0.00 | 50 | 1016.8 |
| 20260503131151 | 12 | 15 | 3.2 | 4.8 | 0.00 | 0.00 | 0.00 | 54 | 1016.3 |
| 20260503130649 | 12 | 299 | 8.0 | 9.7 | 0.00 | 0.00 | 0.00 | 53 | 1016.6 |
| 20260503130146 | 12 | 36 | 4.8 | 4.8 | 0.00 | 0.00 | 0.00 | 55 | 1016.5 |
| 20260503120112 | 11 | 341 | 4.8 | 4.8 | 0.00 | 0.00 | 0.00 | 59 | 1015.9 |
| 20260503110539 | 10 | 2 | 3.2 | 4.8 | 0.00 | 0.00 | 0.00 | 75 | 1014.9 |
| 20260503090426 | 8 | 323 | 0.0 | 0.0 | 0.00 | 0.00 | 0.00 | 89 | 1013.0 |
| 20260503081352 | 8 | 344 | 1.6 | 1.6 | 0.00 | 0.00 | 0.00 | 87 | 1012.6 |
| 20260503080849 | 8 | 351 | 0.0 | 0.0 | 0.00 | 0.00 | 0.00 | 87 | 1012.5 |
| 20260503080346 | 8 | 1 | 0.0 | 0.0 | 0.00 | 0.00 | 0.00 | 87 | 1012.5 |
| 20260503072823 | 9 | 355 | 1.6 | 1.6 | 0.00 | 0.00 | 0.00 | 86 | 1012.0 |
| 20260503072319 | 8 | 4 | 0.0 | 0.0 | 0.00 | 0.00 | 0.00 | 86 | 1012.0 |
| 20260503071815 | 8 | 336 | 3.2 | 3.2 | 0.00 | 0.00 | 0.00 | 87 | 1012.0 |
| 20260503071313 | 8 | 16 | 1.6 | 1.6 | 0.00 | 0.00 | 0.00 | 87 | 1011.7 |
| 20260503070809 | 9 | 356 | 1.6 | 1.6 | 0.00 | 0.00 | 0.00 | 87 | 1011.8 |
| 20260503070308 | 8 | 348 | 1.6 | 3.2 | 0.00 | 0.00 | 0.00 | 87 | 1011.7 |
| 20260503060238 | 10 | 345 | 0.0 | 0.0 | 0.00 | 0.00 | 0.00 | 88 | 1011.3 |
| 20260503054725 | 10 | 345 | 0.0 | 0.0 | 0.00 | 0.00 | 0.00 | 86 | 1011.1 |
| 20260503054222 | 10 | 346 | 0.0 | 0.0 | 0.00 | 0.00 | 0.00 | 85 | 1011.3 |
| 20260503053720 | 10 | 345 | 0.0 | 0.0 | 0.00 | 0.00 | 0.00 | 84 | 1011.4 |
| 20260503053219 | 10 | 345 | 0.0 | 0.0 | 0.00 | 0.00 | 0.00 | 84 | 1011.5 |
| 20260503052714 | 10 | 346 | 0.0 | 0.0 | 0.00 | 0.00 | 0.00 | 84 | 1011.6 |
| 20260503052211 | 10 | 349 | 0.0 | 1.6 | 0.00 | 0.00 | 0.00 | 83 | 1011.8 |
| 20260503051706 | 11 | 349 | 0.0 | 0.0 | 0.00 | 0.00 | 0.00 | 83 | 1011.5 |
| 20260503051204 | 11 | 349 | 0.0 | 0.0 | 0.00 | 0.00 | 0.00 | 83 | 1011.3 |
| 20260503050701 | 11 | 350 | 0.0 | 0.0 | 0.00 | 0.00 | 0.00 | 82 | 1011.5 |
| 20260503050157 | 11 | 350 | 0.0 | 0.0 | 0.00 | 0.00 | 0.00 | 83 | 1011.5 |
| 20260503045655 | 11 | 350 | 0.0 | 0.0 | 0.00 | 0.00 | 0.00 | 82 | 1011.5 |
| 20260503045152 | 11 | 37 | 0.0 | 0.0 | 0.00 | 0.00 | 0.00 | 83 | 1011.6 |
| 20260503044648 | 11 | 43 | 0.0 | 0.0 | 0.00 | 0.00 | 0.00 | 82 | 1011.5 |
| 20260503044146 | 11 | 56 | 1.6 | 1.6 | 0.00 | 0.00 | 0.00 | 81 | 1011.2 |
| 20260503043642 | 11 | 58 | 0.0 | 0.0 | 0.00 | 0.00 | 0.00 | 81 | 1011.5 |
| 20260503043140 | 11 | 58 | 0.0 | 0.0 | 0.00 | 0.00 | 0.00 | 79 | 1011.8 |
| 20260503042636 | 11 | 58 | 1.6 | 1.6 | 0.00 | 0.00 | 0.00 | 78 | 1011.5 |
| 20260503042132 | 11 | 353 | 4.8 | 4.8 | 0.00 | 0.00 | 0.00 | 78 | 1011.4 |
| 20260503041629 | 11 | 343 | 1.6 | 1.6 | 0.00 | 0.00 | 0.00 | 79 | 1011.6 |
| 20260503041127 | 11 | 357 | 1.6 | 1.6 | 0.00 | 0.00 | 0.00 | 79 | 1011.5 |
| 20260503040624 | 11 | 357 | 1.6 | 3.2 | 0.00 | 0.00 | 0.00 | 79 | 1011.4 |
| 20260503040121 | 11 | 358 | 0.0 | 0.0 | 0.00 | 0.00 | 0.00 | 80 | 1011.4 |
| 20260503035617 | 11 | 7 | 1.6 | 1.6 | 0.00 | 0.48 | 0.48 | 79 | 1011.5 |
| 20260503035115 | 11 | 12 | 0.0 | 0.0 | 0.00 | 0.48 | 0.48 | 81 | 1011.5 |
| 20260503034612 | 11 | 14 | 0.0 | 0.0 | 0.00 | 0.48 | 0.48 | 81 | 1011.2 |
| 20260503034110 | 11 | 14 | 0.0 | 0.0 | 0.00 | 0.48 | 0.48 | 81 | 1011.5 |
| 20260503033607 | 11 | 14 | 1.6 | 1.6 | 0.00 | 0.48 | 0.48 | 81 | 1011.5 |
| 20260503033104 | 11 | 14 | 0.0 | 0.0 | 0.00 | 0.48 | 0.48 | 80 | 1011.5 |
| 20260503032603 | 11 | 347 | 1.6 | 1.6 | 0.00 | 0.48 | 0.48 | 80 | 1011.5 |
| 20260503032100 | 11 | 25 | 3.2 | 3.2 | 0.00 | 0.48 | 0.48 | 80 | 1011.4 |
| 20260503031558 | 11 | 26 | 1.6 | 1.6 | 0.00 | 0.48 | 0.48 | 80 | 1011.3 |
| 20260503031055 | 11 | 26 | 0.0 | 0.0 | 0.00 | 0.48 | 0.48 | 80 | 1011.6 |
| 20260503030551 | 11 | 26 | 0.0 | 0.0 | 0.00 | 0.48 | 0.48 | 80 | 1011.4 |
| 20260503030048 | 11 | 26 | 0.0 | 0.0 | 0.00 | 0.48 | 0.48 | 79 | 1011.2 |
| 20260503025545 | 11 | 22 | 0.0 | 0.0 | 0.00 | 0.48 | 0.48 | 79 | 1011.4 |
| 20260503025043 | 11 | 16 | 0.0 | 0.0 | 0.00 | 0.48 | 0.48 | 79 | 1011.4 |
| 20260503024538 | 11 | 350 | 0.0 | 0.0 | 0.00 | 0.48 | 0.48 | 79 | 1011.5 |
| 20260503024036 | 11 | 350 | 0.0 | 0.0 | 0.00 | 0.48 | 0.48 | 79 | 1011.5 |
| 20260503023533 | 11 | 350 | 0.0 | 0.0 | 0.00 | 0.48 | 0.48 | 79 | 1011.7 |
| 20260503023030 | 11 | 350 | 0.0 | 0.0 | 0.00 | 0.48 | 0.48 | 80 | 1011.5 |
| 20260503022526 | 11 | 350 | 0.0 | 0.0 | 0.00 | 0.48 | 0.48 | 80 | 1011.6 |
| 20260503022021 | 11 | 350 | 1.6 | 1.6 | 0.00 | 0.48 | 0.48 | 80 | 1011.5 |
| 20260503021518 | 11 | 350 | 0.0 | 0.0 | 0.00 | 0.48 | 0.48 | 79 | 1011.7 |
| 20260503021015 | 11 | 350 | 0.0 | 0.0 | 0.00 | 0.48 | 0.48 | 80 | 1011.8 |
| 20260503020512 | 11 | 350 | 0.0 | 1.6 | 0.00 | 0.48 | 0.48 | 82 | 1011.7 |
| 20260503020009 | 11 | 350 | 0.0 | 0.0 | 0.00 | 0.48 | 0.48 | 81 | 1011.6 |
| 20260503015505 | 11 | 350 | 0.0 | 0.0 | 0.00 | 0.48 | 0.48 | 84 | 1011.4 |
| 20260503015002 | 11 | 350 | 0.0 | 0.0 | 0.00 | 0.48 | 0.48 | 83 | 1011.5 |
| 20260503014458 | 11 | 350 | 0.0 | 0.0 | 0.00 | 0.48 | 0.48 | 81 | 1011.3 |
| 20260503013957 | 11 | 350 | 0.0 | 0.0 | 0.00 | 0.48 | 0.48 | 80 | 1011.2 |
| 20260503013453 | 11 | 350 | 0.0 | 0.0 | 0.00 | 0.48 | 0.48 | 80 | 1011.2 |
| 20260503012950 | 11 | 350 | 0.0 | 0.0 | 0.00 | 0.48 | 0.48 | 81 | 1011.5 |
| 20260503012449 | 11 | 350 | 0.0 | 0.0 | 0.00 | 0.48 | 0.48 | 80 | 1011.3 |
| 20260503011944 | 11 | 350 | 0.0 | 0.0 | 0.00 | 0.48 | 0.48 | 81 | 1011.2 |
| 20260503011441 | 11 | 350 | 0.0 | 0.0 | 0.00 | 0.48 | 0.48 | 79 | 1011.2 |
| 20260503010939 | 11 | 350 | 0.0 | 0.0 | 0.00 | 0.48 | 0.48 | 79 | 1011.2 |
| 20260503010435 | 11 | 350 | 0.0 | 0.0 | 0.00 | 0.48 | 0.48 | 80 | 1011.3 |
| 20260503005932 | 11 | 74 | 1.6 | 1.6 | 0.00 | 0.48 | 0.48 | 80 | 1011.0 |
| 20260503005430 | 11 | 75 | 0.0 | 0.0 | 0.00 | 0.48 | 0.48 | 78 | 1011.0 |
| 20260503004926 | 11 | 75 | 0.0 | 0.0 | 0.00 | 0.48 | 0.48 | 78 | 1010.9 |
| 20260503004423 | 11 | 75 | 0.0 | 0.0 | 0.00 | 0.48 | 0.48 | 77 | 1011.1 |
| 20260503003921 | 11 | 75 | 0.0 | 0.0 | 0.00 | 0.48 | 0.48 | 76 | 1010.9 |
| 20260503003417 | 11 | 75 | 0.0 | 0.0 | 0.00 | 0.48 | 0.48 | 76 | 1011.1 |
| 20260503002915 | 11 | 75 | 0.0 | 0.0 | 0.00 | 0.48 | 0.48 | 75 | 1011.0 |
| 20260503002412 | 11 | 20 | 0.0 | 0.0 | 0.00 | 0.48 | 0.48 | 75 | 1010.9 |
| 20260503001908 | 11 | 20 | 0.0 | 0.0 | 0.00 | 0.48 | 0.48 | 74 | 1010.7 |
| 20260503001404 | 11 | 29 | 1.6 | 1.6 | 0.00 | 0.48 | 0.48 | 74 | 1010.8 |
| 20260503000902 | 11 | 2 | 1.6 | 1.6 | 0.00 | 0.48 | 0.48 | 75 | 1010.5 |
| 20260503000400 | 11 | 343 | 4.8 | 4.8 | 0.00 | 0.48 | 0.48 | 74 | 1010.7 |
| 20260502235856 | 11 | 351 | 1.6 | 1.6 | 0.00 | 0.48 | 0.48 | 75 | 1010.4 |
| 20260502235353 | 11 | 13 | 0.0 | 0.0 | 0.00 | 0.48 | 0.48 | 76 | 1010.5 |
| 20260502234850 | 11 | 6 | 1.6 | 1.6 | 0.00 | 0.48 | 0.48 | 75 | 1010.4 |
| 20260502234347 | 12 | 31 | 1.6 | 1.6 | 0.00 | 0.48 | 0.48 | 75 | 1010.2 |
| 20260502233844 | 12 | 322 | 3.2 | 4.8 | 0.00 | 0.48 | 0.48 | 75 | 1010.2 |
| 20260502233340 | 12 | 298 | 3.2 | 3.2 | 0.00 | 0.48 | 0.48 | 76 | 1010.2 |
| 20260502232837 | 12 | 87 | 1.6 | 1.6 | 0.00 | 0.48 | 0.48 | 75 | 1010.1 |
| 20260502232333 | 12 | 6 | 3.2 | 3.2 | 0.00 | 0.48 | 0.48 | 76 | 1010.1 |
| 20260502231830 | 12 | 47 | 4.8 | 4.8 | 0.00 | 0.48 | 0.48 | 76 | 1010.1 |
| 20260502231328 | 12 | 61 | 0.0 | 0.0 | 0.00 | 0.48 | 0.48 | 76 | 1010.1 |
| 20260502230826 | 12 | 328 | 1.6 | 1.6 | 0.00 | 0.48 | 0.48 | 77 | 1010.3 |
| 20260502230323 | 12 | 306 | 3.2 | 3.2 | 0.00 | 0.48 | 0.48 | 77 | 1010.4 |
| 20260502225820 | 12 | 58 | 0.0 | 0.0 | 0.00 | 0.48 | 0.48 | 77 | 1010.2 |
| 20260502225317 | 12 | 42 | 1.6 | 1.6 | 0.00 | 0.48 | 0.48 | 77 | 1010.3 |
| 20260502224813 | 12 | 70 | 1.6 | 3.2 | 0.00 | 0.48 | 0.48 | 76 | 1010.2 |
| 20260502224309 | 12 | 347 | 1.6 | 1.6 | 0.00 | 0.48 | 0.48 | 76 | 1010.1 |
| 20260502223808 | 12 | 33 | 1.6 | 1.6 | 0.00 | 0.48 | 0.48 | 76 | 1010.1 |
| 20260502223305 | 12 | 17 | 1.6 | 1.6 | 0.00 | 0.48 | 0.48 | 76 | 1010.2 |
| 20260502222803 | 12 | 26 | 1.6 | 3.2 | 0.00 | 0.48 | 0.48 | 76 | 1010.6 |
| 20260502222300 | 12 | 0 | 0.0 | 1.6 | 0.00 | 0.48 | 0.48 | 75 | 1010.5 |
| 20260502221755 | 12 | 345 | 4.8 | 4.8 | 0.00 | 0.48 | 0.48 | 74 | 1010.5 |
| 20260502221252 | 12 | 94 | 1.6 | 1.6 | 0.00 | 0.48 | 0.48 | 73 | 1010.8 |
| 20260502220749 | 12 | 10 | 3.2 | 3.2 | 0.00 | 0.48 | 0.48 | 73 | 1010.6 |
| 20260502220244 | 12 | 50 | 0.0 | 1.6 | 0.00 | 0.48 | 0.48 | 71 | 1010.4 |
| 20260502215741 | 13 | 91 | 1.6 | 1.6 | 0.00 | 0.48 | 0.48 | 77 | 1010.5 |
| 20260502215239 | 13 | 40 | 1.6 | 3.2 | 0.00 | 0.48 | 0.48 | 76 | 1010.6 |
| 20260502214736 | 13 | 64 | 1.6 | 1.6 | 0.00 | 0.48 | 0.48 | 77 | 1010.4 |
| 20260502214234 | 13 | 340 | 3.2 | 4.8 | 0.00 | 0.48 | 0.48 | 78 | 1010.6 |
| 20260502213730 | 13 | 334 | 0.0 | 0.0 | 0.00 | 0.48 | 0.48 | 78 | 1010.3 |
| 20260502213227 | 13 | 31 | 0.0 | 0.0 | 0.00 | 0.48 | 0.48 | 81 | 1010.2 |
| 20260502212726 | 13 | 68 | 0.0 | 0.0 | 0.00 | 0.48 | 0.48 | 82 | 1010.0 |
| 20260502212224 | 13 | 118 | 3.2 | 3.2 | 0.00 | 0.48 | 0.48 | 81 | 1010.1 |
| 20260502211720 | 13 | 71 | 1.6 | 1.6 | 0.00 | 0.48 | 0.48 | 81 | 1010.0 |
| 20260502211217 | 13 | 334 | 3.2 | 4.8 | 0.00 | 0.48 | 0.48 | 81 | 1010.0 |
| 20260502210714 | 13 | 86 | 0.0 | 1.6 | 0.00 | 0.48 | 0.48 | 82 | 1009.9 |
| 20260502210211 | 13 | 48 | 1.6 | 1.6 | 0.00 | 0.48 | 0.48 | 84 | 1009.7 |
| 20260502205708 | 13 | 91 | 0.0 | 0.0 | 0.00 | 0.48 | 0.48 | 85 | 1010.1 |
| 20260502205204 | 12 | 42 | 3.2 | 4.8 | 0.00 | 0.48 | 0.48 | 85 | 1010.2 |
| 20260502204701 | 12 | 44 | 0.0 | 0.0 | 0.00 | 0.48 | 0.48 | 87 | 1010.1 |
| 20260502204159 | 12 | 69 | 0.0 | 0.0 | 0.00 | 0.48 | 0.48 | 84 | 1010.0 |
| 20260502203656 | 12 | 354 | 1.6 | 1.6 | 0.00 | 0.48 | 0.48 | 85 | 1010.3 |
| 20260502203154 | 12 | 88 | 1.6 | 4.8 | 0.00 | 0.48 | 0.48 | 83 | 1009.9 |
| 20260502202648 | 12 | 88 | 0.0 | 0.0 | 0.00 | 0.48 | 0.48 | 82 | 1010.0 |
| 20260502202147 | 12 | 304 | 4.8 | 4.8 | 0.00 | 0.48 | 0.48 | 84 | 1010.0 |
| 20260502201643 | 12 | 346 | 6.4 | 9.7 | 0.00 | 0.48 | 0.48 | 84 | 1009.8 |